Find Flock 4be-14

NORAD ID: 60517 Int'l Des: 2024-149 Owner: PLAN Country: US Constellation: planet operational
LEOCIRCULARRETROGRADESSO

实时位置

正在加载3D地球...

关于 Flock 4be-14

正在加载描述...

即将过境

Passes for default location (London). Set your location on the main map for personalized predictions.

高度历史

Loading altitude history...

两行轨道根数

1 60517U 24149BB 26122.17117385 .00019356 00000-0 49297-3 0 9993
2 60517 97.3699 205.5889 0006077 105.4158 254.7759 15.39586090 95240
Epoch: May 2, 2026 • Age: 8 hours

当前状态

高度 452.2 km
速度 7.65 km/s
星下点 45.87°N, 156.27°E
发射日期 Aug 16, 2024
运行时间 1.7 years
类型 earth observation

技术详情

分类 Payload
质量 5.70 kg
干质量 5.70 kg
总质量 5.70 kg
长度 0.30 m
直径 0.10 m
跨度 0.30 m
形状 Box+2 pan
制造商 PLAN
平台类型 Cubesat 3U
阶段状态 In Orbit
所有者/国家 PLAN/US

Most Searched